When you browse on this site, cookies collect data to enhance your experience and personalize the content and advertising you see.
Visit our Privacy Policy to learn more. By continuing to use the site, you agree to this use of cookies and data.
  • In Hungary
  • List of Countries
  • For 7 days
  • Water Temperature
  • Satellite Maps
  • Weather Map
  • News
  • Weather Widgets
  • user-avatar
    Login

    Hourly Weather Innsbruck

    Today, 10 December, Monday

    Time Temperature Precipitation Wind Pressure Humidity
    00:00 -7°C° 1.5 mm 3 mps 589 mmHg 95%
    01:00 -7°C° 1.5 mm 3 mps 590 mmHg 96%
    02:00 -7°C° 0.9 mm 3 mps 590 mmHg 95%
    03:00 -8°C° 0.9 mm 3 mps 590 mmHg 95%
    04:00 -8°C° 0.9 mm 3 mps 590 mmHg 95%
    05:00 -9°C° 0.6 mm 3 mps 590 mmHg 94%
    06:00 -9°C° 0.6 mm 3 mps 590 mmHg 94%
    07:00 -9°C° 0.6 mm 3 mps 590 mmHg 93%
    08:00 -9°C° 0.5 mm 3 mps 591 mmHg 92%
    09:00 -10°C° 0.5 mm 4 mps 591 mmHg 91%
    10:00 -10°C° 0.5 mm 4 mps 591 mmHg 90%
    11:00 -10°C° 0.7 mm 4 mps 592 mmHg 90%
    12:00 -10°C° 0.7 mm 4 mps 592 mmHg 89%
    13:00 -9°C° 0.7 mm 3 mps 592 mmHg 89%
    14:00 -9°C° 0.6 mm 3 mps 592 mmHg 90%
    15:00 -9°C° 0.6 mm 3 mps 592 mmHg 91%
    16:00 -10°C° 0.6 mm 3 mps 592 mmHg 92%
    17:00 -10°C° 0.6 mm 3 mps 592 mmHg 92%
    18:00 -9°C° 0.6 mm 2 mps 592 mmHg 93%
    19:00 -9°C° 0.6 mm 2 mps 591 mmHg 94%
    20:00 -10°C° 1 mm 3 mps 591 mmHg 94%
    21:00 -10°C° 1 mm 3 mps 591 mmHg 94%
    22:00 -10°C° 1 mm 3 mps 591 mmHg 95%
    23:00 -10°C° 1.5 mm 3 mps 592 mmHg 95%

    Tomorrow, 11 December, Tuesday

    Time Temperature Precipitation Wind Pressure Humidity
    00:00 -12°C° 1.5 mm 3 mps 592 mmHg 95%
    01:00 -12°C° 1.5 mm 3 mps 592 mmHg 96%
    02:00 -12°C° 0.6 mm 3 mps 592 mmHg 96%
    03:00 -13°C° 0.6 mm 3 mps 591 mmHg 96%
    04:00 -12°C° 0.6 mm 2 mps 591 mmHg 96%
    05:00 -12°C° 0.3 mm 2 mps 591 mmHg 95%
    06:00 -13°C° 0.3 mm 2 mps 591 mmHg 95%
    07:00 -13°C° 0.3 mm 2 mps 591 mmHg 95%
    08:00 -12°C° 0.3 mm 2 mps 591 mmHg 93%
    09:00 -12°C° 0.3 mm 2 mps 592 mmHg 92%
    10:00 -12°C° 0.3 mm 2 mps 592 mmHg 91%
    11:00 -10°C° 0.2 mm 2 mps 592 mmHg 89%
    12:00 -10°C° 0.2 mm 2 mps 592 mmHg 87%
    13:00 -9°C° 0.2 mm 2 mps 592 mmHg 86%
    14:00 -10°C° 0.1 mm 2 mps 592 mmHg 87%
    15:00 -12°C° 0.1 mm 2 mps 592 mmHg 89%
    16:00 -12°C° 0.1 mm 2 mps 591 mmHg 91%
    17:00 -13°C° 0.1 mm 2 mps 591 mmHg 92%
    18:00 -14°C° 0.1 mm 2 mps 591 mmHg 92%
    19:00 -15°C° 0.1 mm 2 mps 591 mmHg 93%
    20:00 -16°C° 0.1 mm 2 mps 591 mmHg 92%
    21:00 -16°C° 0.1 mm 2 mps 590 mmHg 92%
    22:00 -17°C° 0.1 mm 2 mps 590 mmHg 91%
    23:00 -17°C° 0 mm 2 mps 590 mmHg 90%

    Day after tomorrow, 12 December, Wednesday

    Time Temperature Precipitation Wind Pressure Humidity
    00:00 -17°C° 0 mm 2 mps 590 mmHg 89%
    01:00 -18°C° 0 mm 2 mps 590 mmHg 88%
    02:00 -18°C° 0 mm 2 mps 590 mmHg 88%
    03:00 -18°C° 0 mm 2 mps 589 mmHg 87%
    04:00 -18°C° 0 mm 2 mps 589 mmHg 87%
    05:00 -18°C° 0 mm 2 mps 589 mmHg 87%
    06:00 -18°C° 0 mm 2 mps 589 mmHg 86%
    07:00 -18°C° 0 mm 2 mps 589 mmHg 86%
    08:00 -15°C° 0 mm 1 mps 590 mmHg 85%
    09:00 -13°C° 0 mm 1 mps 591 mmHg 84%
    10:00 -12°C° 0 mm 1 mps 591 mmHg 83%
    11:00 -10°C° 0 mm 1 mps 591 mmHg 78%
    12:00 -9°C° 0 mm 0 mps 592 mmHg 74%
    13:00 -7°C° 0 mm 0 mps 592 mmHg 70%
    14:00 -9°C° 0 mm 0 mps 591 mmHg 76%
    15:00 -11°C° 0 mm 0 mps 590 mmHg 81%
    16:00 -12°C° 0 mm 0 mps 589 mmHg 87%
    17:00 -13°C° 0 mm 1 mps 588 mmHg 86%
    18:00 -14°C° 0 mm 1 mps 588 mmHg 86%
    19:00 -15°C° 0 mm 1 mps 588 mmHg 85%
    20:00 -15°C° 0 mm 1 mps 588 mmHg 83%
    21:00 -15°C° 0 mm 1 mps 588 mmHg 81%
    22:00 -17°C° 0 mm 2 mps 588 mmHg 79%
    23:00 -14°C° 0 mm 1 mps 588 mmHg 80%

    13 December, Thursday

    Time Temperature Precipitation Wind Pressure Humidity
    00:00 -14°C° 0 mm 1 mps 588 mmHg 80%
    01:00 -14°C° 0 mm 1 mps 589 mmHg 81%
    02:00 -13°C° 0 mm 1 mps 589 mmHg 82%
    03:00 -13°C° 0 mm 1 mps 589 mmHg 83%
    04:00 -13°C° 0 mm 1 mps 589 mmHg 84%
    05:00 -13°C° 0 mm 1 mps 588 mmHg 83%
    06:00 -13°C° 0 mm 1 mps 588 mmHg 83%
    07:00 -13°C° 0 mm 1 mps 588 mmHg 83%
    08:00 -12°C° 0 mm 1 mps 588 mmHg 83%
    09:00 -10°C° 0 mm 1 mps 589 mmHg 83%
    10:00 -9°C° 0 mm 1 mps 589 mmHg 83%
    11:00 -8°C° 0 mm 1 mps 589 mmHg 82%
    12:00 -7°C° 0 mm 1 mps 589 mmHg 80%
    13:00 -6°C° 0 mm 1 mps 589 mmHg 79%
    14:00 -7°C° 0 mm 1 mps 589 mmHg 82%
    15:00 -8°C° 0 mm 1 mps 588 mmHg 84%
    16:00 -8°C° 0 mm 1 mps 588 mmHg 87%
    17:00 -9°C° 0 mm 1 mps 587 mmHg 86%
    18:00 -10°C° 0 mm 1 mps 587 mmHg 86%
    19:00 -10°C° 0 mm 1 mps 587 mmHg 85%
    20:00 -10°C° 0.1 mm 1 mps 587 mmHg 85%
    21:00 -10°C° 0.1 mm 1 mps 587 mmHg 85%
    22:00 -10°C° 0.1 mm 1 mps 587 mmHg 86%
    23:00 -9°C° 0.2 mm 1 mps 588 mmHg 87%

    14 December, Friday

    Time Temperature Precipitation Wind Pressure Humidity
    00:00 -9°C° 0.2 mm 1 mps 588 mmHg 88%
    01:00 -9°C° 0.2 mm 1 mps 588 mmHg 89%
    02:00 -9°C° 0.2 mm 1 mps 588 mmHg 90%
    03:00 -10°C° 0.2 mm 2 mps 588 mmHg 91%
    04:00 -10°C° 0.2 mm 2 mps 588 mmHg 92%
    05:00 -10°C° 0.1 mm 2 mps 588 mmHg 92%
    06:00 -10°C° 0.1 mm 2 mps 588 mmHg 92%
    07:00 -12°C° 0.1 mm 2 mps 588 mmHg 92%
    08:00 -10°C° 0 mm 2 mps 588 mmHg 91%
    09:00 -9°C° 0 mm 2 mps 589 mmHg 90%
    10:00 -8°C° 0 mm 1 mps 589 mmHg 88%
    11:00 -7°C° 0 mm 1 mps 590 mmHg 86%
    12:00 -6°C° 0 mm 1 mps 590 mmHg 84%
    13:00 -4°C° 0 mm 1 mps 590 mmHg 81%
    14:00 -6°C° 0 mm 1 mps 589 mmHg 83%
    15:00 -7°C° 0 mm 1 mps 589 mmHg 85%
    16:00 -9°C° 0 mm 1 mps 588 mmHg 87%
    17:00 -9°C° 0 mm 1 mps 588 mmHg 86%
    18:00 -12°C° 0 mm 2 mps 588 mmHg 84%
    19:00 -12°C° 0 mm 2 mps 588 mmHg 83%
    20:00 -12°C° 0 mm 2 mps 588 mmHg 82%
    21:00 -10°C° 0 mm 2 mps 588 mmHg 81%
    22:00 -10°C° 0 mm 2 mps 588 mmHg 80%
    23:00 -9°C° 0.1 mm 2 mps 588 mmHg 81%

    15 December, Saturday

    Time Temperature Precipitation Wind Pressure Humidity
    00:00 -9°C° 0.1 mm 2 mps 588 mmHg 81%
    01:00 -9°C° 0.1 mm 2 mps 589 mmHg 82%
    02:00 -9°C° 0.1 mm 2 mps 589 mmHg 83%
    03:00 -7°C° 0.1 mm 1 mps 589 mmHg 83%
    04:00 -7°C° 0.1 mm 1 mps 589 mmHg 84%
    05:00 -7°C° 0.4 mm 1 mps 589 mmHg 86%
    06:00 -6°C° 0.4 mm 1 mps 590 mmHg 88%
    07:00 -7°C° 0.4 mm 2 mps 591 mmHg 91%
    08:00 -6°C° 0.6 mm 2 mps 591 mmHg 91%
    09:00 -5°C° 0.6 mm 2 mps 592 mmHg 91%
    10:00 -4°C° 0.6 mm 2 mps 593 mmHg 92%
    11:00 -4°C° 0.8 mm 2 mps 593 mmHg 92%
    12:00 -3°C° 0.8 mm 2 mps 594 mmHg 93%
    13:00 -3°C° 0.8 mm 2 mps 594 mmHg 94%
    14:00 -3°C° 0.6 mm 2 mps 594 mmHg 94%
    15:00 -3°C° 0.6 mm 2 mps 594 mmHg 94%
    16:00 -3°C° 0.6 mm 2 mps 595 mmHg 95%
    17:00 -4°C° 0.4 mm 2 mps 595 mmHg 95%
    18:00 -4°C° 0.4 mm 2 mps 595 mmHg 95%
    19:00 -5°C° 0.4 mm 2 mps 595 mmHg 95%
    20:00 -5°C° 0.2 mm 2 mps 595 mmHg 95%
    21:00 -5°C° 0.2 mm 2 mps 595 mmHg 94%
    22:00 -5°C° 0.2 mm 2 mps 595 mmHg 94%
    23:00 -5°C° 0.1 mm 2 mps 595 mmHg 92%
    Show more